| time (UTC) | temp C | wind direction | speed KPH | gust KPH | rain 1hr cm | rain 24hr cm | rain mn cm | humidity % | barometer mb |
| 20260906101007 | 22 | 234 | 0.0 | 0.0 | 0.00 | 2.24 | 0.00 | 91 | 1013.2 |
| 20260906100509 | 22 | 234 | 0.0 | 0.0 | 0.00 | 2.24 | 0.00 | 91 | 1013.1 |
| 20260906100023 | 22 | 234 | 0.0 | 0.0 | 0.00 | 2.24 | 0.00 | 91 | 1013.0 |
| 20260906095511 | 22 | 234 | 0.0 | 0.0 | 0.00 | 2.24 | 0.00 | 92 | 1013.0 |
| 20260906095011 | 22 | 234 | 0.0 | 0.0 | 0.00 | 2.24 | 0.00 | 92 | 1013.1 |
| 20260906094527 | 22 | 234 | 0.0 | 0.0 | 0.00 | 2.24 | 0.00 | 92 | 1013.1 |
| 20260906094014 | 22 | 234 | 0.0 | 0.0 | 0.00 | 2.24 | 0.00 | 92 | 1013.0 |
| 20260906093517 | 22 | 234 | 0.0 | 0.0 | 0.00 | 2.24 | 0.00 | 92 | 1013.1 |
| 20260906093031 | 22 | 234 | 0.0 | 0.0 | 0.00 | 2.24 | 0.00 | 91 | 1013.1 |
| 20260906092517 | 22 | 234 | 0.0 | 0.0 | 0.00 | 2.24 | 0.00 | 91 | 1013.1 |
| 20260906092004 | 22 | 234 | 0.0 | 0.0 | 0.00 | 2.24 | 0.00 | 91 | 1013.0 |
| 20260906091514 | 22 | 234 | 0.0 | 0.0 | 0.00 | 2.24 | 0.00 | 91 | 1013.0 |
| 20260906091006 | 22 | 234 | 0.0 | 0.0 | 0.00 | 2.24 | 0.00 | 91 | 1013.0 |
| 20260906090508 | 22 | 234 | 0.0 | 0.0 | 0.00 | 2.24 | 0.00 | 92 | 1013.2 |
| 20260906090016 | 22 | 234 | 0.0 | 0.0 | 0.00 | 2.24 | 0.00 | 92 | 1013.1 |
| 20260906085510 | 22 | 234 | 0.0 | 0.0 | 0.00 | 2.24 | 0.00 | 92 | 1013.0 |
| 20260906085012 | 22 | 234 | 0.0 | 0.0 | 0.00 | 2.24 | 0.00 | 92 | 1012.9 |
| 20260906084520 | 22 | 234 | 0.0 | 1.6 | 0.00 | 2.24 | 0.00 | 92 | 1013.0 |
| 20260906084013 | 22 | 234 | 0.0 | 1.6 | 0.00 | 2.24 | 0.00 | 92 | 1012.8 |
| 20260906083513 | 22 | 234 | 0.0 | 0.0 | 0.00 | 2.24 | 0.00 | 91 | 1012.9 |
| 20260906083028 | 22 | 234 | 0.0 | 1.6 | 0.00 | 2.24 | 0.00 | 91 | 1012.8 |
| 20260906082514 | 22 | 234 | 0.0 | 1.6 | 0.00 | 2.24 | 0.00 | 91 | 1012.8 |
| 20260906082014 | 23 | 234 | 0.0 | 0.0 | 0.00 | 2.24 | 0.00 | 91 | 1012.8 |
| 20260906081530 | 23 | 234 | 0.0 | 1.6 | 0.00 | 2.24 | 0.00 | 91 | 1012.8 |
| 20260906081014 | 23 | 234 | 0.0 | 1.6 | 0.00 | 2.24 | 0.00 | 91 | 1012.8 |
| 20260906080518 | 23 | 234 | 0.0 | 1.6 | 0.00 | 2.24 | 0.00 | 91 | 1012.7 |
| 20260906080014 | 23 | 234 | 0.0 | 1.6 | 0.00 | 2.24 | 0.00 | 91 | 1012.8 |
| 20260906075507 | 23 | 234 | 0.0 | 1.6 | 0.00 | 2.24 | 0.00 | 91 | 1012.7 |
| 20260906075011 | 23 | 234 | 0.0 | 1.6 | 0.00 | 2.24 | 0.00 | 91 | 1012.9 |
| 20260906074516 | 23 | 234 | 0.0 | 0.0 | 0.00 | 2.24 | 0.00 | 91 | 1013.0 |
| 20260906074011 | 23 | 234 | 0.0 | 0.0 | 0.00 | 2.24 | 0.00 | 91 | 1013.0 |
| 20260906073511 | 23 | 234 | 0.0 | 1.6 | 0.00 | 2.24 | 0.00 | 91 | 1013.0 |
| 20260906073030 | 23 | 234 | 0.0 | 3.2 | 0.00 | 2.24 | 0.00 | 91 | 1013.1 |
| 20260906072514 | 23 | 234 | 0.0 | 4.8 | 0.00 | 2.24 | 0.00 | 91 | 1013.1 |
| 20260906072015 | 23 | 234 | 0.0 | 4.8 | 0.00 | 2.24 | 0.00 | 91 | 1012.8 |
| 20260906071529 | 23 | 195 | 0.0 | 0.0 | 0.00 | 2.24 | 0.00 | 91 | 1012.6 |
| 20260906071017 | 23 | 195 | 0.0 | 0.0 | 0.00 | 2.24 | 0.00 | 91 | 1012.4 |
| 20260906070515 | 23 | 195 | 0.0 | 0.0 | 0.00 | 2.24 | 0.00 | 91 | 1012.3 |
| 20260906070033 | 23 | 195 | 0.0 | 0.0 | 0.00 | 2.24 | 0.00 | 91 | 1012.4 |
| 20260906065519 | 23 | 195 | 0.0 | 0.0 | 0.00 | 2.24 | 0.00 | 91 | 1012.3 |
| 20260906065015 | 23 | 195 | 0.0 | 1.6 | 0.00 | 2.24 | 0.00 | 91 | 1012.2 |
| 20260906064515 | 23 | 195 | 0.0 | 1.6 | 0.00 | 2.24 | 0.00 | 91 | 1012.4 |
| 20260906064014 | 23 | 195 | 0.0 | 1.6 | 0.00 | 2.24 | 0.00 | 91 | 1012.6 |
| 20260906063516 | 23 | 195 | 0.0 | 0.0 | 0.00 | 2.24 | 0.00 | 91 | 1012.5 |
| 20260906063020 | 23 | 195 | 0.0 | 0.0 | 0.00 | 2.24 | 0.00 | 91 | 1012.6 |
| 20260906062512 | 23 | 195 | 0.0 | 0.0 | 0.00 | 2.24 | 0.00 | 91 | 1012.8 |
| 20260906062015 | 23 | 195 | 0.0 | 0.0 | 0.00 | 2.24 | 0.00 | 90 | 1012.9 |
| 20260906061527 | 23 | 195 | 0.0 | 1.6 | 0.00 | 2.24 | 0.00 | 90 | 1013.0 |
| 20260906061013 | 23 | 195 | 0.0 | 1.6 | 0.00 | 2.24 | 0.00 | 90 | 1013.0 |
| 20260906060517 | 23 | 195 | 0.0 | 0.0 | 0.00 | 2.24 | 0.00 | 90 | 1012.9 |
| 20260906060033 | 23 | 195 | 0.0 | 0.0 | 0.00 | 2.24 | 0.00 | 90 | 1012.9 |
| 20260906055517 | 23 | 195 | 0.0 | 0.0 | 0.00 | 2.24 | 0.00 | 90 | 1013.1 |
| 20260906055015 | 23 | 195 | 0.0 | 0.0 | 0.00 | 2.24 | 0.00 | 90 | 1013.1 |
| 20260906054552 | 23 | 195 | 0.0 | 0.0 | 0.00 | 2.24 | 0.00 | 90 | 1013.2 |
| 20260906054019 | 23 | 195 | 0.0 | 0.0 | 0.00 | 2.24 | 0.00 | 90 | 1013.3 |
| 20260906053517 | 23 | 195 | 0.0 | 0.0 | 0.00 | 2.24 | 0.00 | 90 | 1013.4 |
| 20260906053020 | 23 | 195 | 0.0 | 0.0 | 0.00 | 2.24 | 0.00 | 90 | 1013.4 |
| 20260906052503 | 23 | 195 | 0.0 | 0.0 | 0.00 | 2.24 | 0.00 | 90 | 1013.5 |
| 20260906052003 | 23 | 195 | 0.0 | 0.0 | 0.00 | 2.24 | 0.00 | 90 | 1013.4 |
| 20260906051504 | 23 | 195 | 0.0 | 0.0 | 0.00 | 2.24 | 0.00 | 90 | 1013.4 |
| 20260906051004 | 23 | 195 | 0.0 | 0.0 | 0.00 | 2.24 | 0.00 | 90 | 1013.3 |
| 20260906050503 | 23 | 195 | 0.0 | 0.0 | 0.00 | 2.24 | 0.00 | 90 | 1013.2 |
| 20260906050006 | 23 | 195 | 0.0 | 0.0 | 0.00 | 2.24 | 0.00 | 90 | 1013.2 |
| 20260906045506 | 23 | 195 | 0.0 | 0.0 | 0.00 | 2.24 | 0.00 | 90 | 1013.4 |
| 20260906045004 | 23 | 195 | 0.0 | 0.0 | 0.00 | 2.24 | 0.00 | 90 | 1013.5 |
| 20260906044509 | 23 | 195 | 0.0 | 0.0 | 0.00 | 2.24 | 0.00 | 89 | 1013.5 |
| 20260906044005 | 23 | 195 | 0.0 | 0.0 | 0.00 | 2.24 | 0.00 | 89 | 1013.4 |
| 20260906043508 | 23 | 195 | 0.0 | 0.0 | 0.00 | 2.24 | 0.00 | 89 | 1013.5 |
| 20260906043018 | 23 | 195 | 0.0 | 0.0 | 0.00 | 2.24 | 0.00 | 89 | 1013.6 |
| 20260906042459 | 23 | 195 | 0.0 | 0.0 | 0.00 | 2.24 | 0.00 | 89 | 1013.6 |
| 20260906042004 | 23 | 195 | 0.0 | 0.0 | 0.00 | 2.24 | 0.00 | 89 | 1013.6 |
| 20260906041504 | 23 | 195 | 0.0 | 0.0 | 0.00 | 2.24 | 0.00 | 89 | 1013.7 |
| 20260906041003 | 23 | 195 | 0.0 | 0.0 | 0.00 | 2.24 | 0.00 | 89 | 1013.7 |
| 20260906040503 | 23 | 195 | 0.0 | 0.0 | 0.00 | 2.24 | 0.00 | 89 | 1013.6 |
| 20260906040006 | 23 | 195 | 0.0 | 1.6 | 0.00 | 2.24 | 0.00 | 89 | 1013.9 |
| 20260906035504 | 23 | 195 | 0.0 | 3.2 | 0.00 | 2.24 | 2.24 | 89 | 1013.9 |
| 20260906035004 | 23 | 195 | 0.0 | 3.2 | 0.00 | 2.24 | 2.24 | 89 | 1013.9 |
| 20260906034513 | 23 | 129 | 0.0 | 0.0 | 0.00 | 2.24 | 2.24 | 89 | 1013.7 |
| 20260906034005 | 23 | 129 | 0.0 | 0.0 | 0.00 | 2.24 | 2.24 | 89 | 1013.6 |
| 20260906033505 | 24 | 129 | 0.0 | 1.6 | 0.00 | 2.24 | 2.24 | 89 | 1013.7 |
| 20260906033032 | 24 | 129 | 0.0 | 1.6 | 0.00 | 2.24 | 2.24 | 89 | 1013.8 |
| 20260906032507 | 24 | 129 | 0.0 | 1.6 | 0.00 | 2.24 | 2.24 | 89 | 1013.6 |
| 20260906032009 | 24 | 129 | 0.0 | 1.6 | 0.00 | 2.24 | 2.24 | 88 | 1013.7 |
| 20260906031518 | 24 | 129 | 0.0 | 0.0 | 0.00 | 2.24 | 2.24 | 88 | 1013.7 |
| 20260906031003 | 24 | 129 | 0.0 | 1.6 | 0.00 | 2.24 | 2.24 | 88 | 1013.7 |
| 20260906030504 | 24 | 129 | 0.0 | 1.6 | 0.00 | 2.24 | 2.24 | 88 | 1013.6 |
| 20260906030005 | 24 | 129 | 0.0 | 1.6 | 0.00 | 2.24 | 2.24 | 88 | 1013.5 |
| 20260906025504 | 24 | 129 | 0.0 | 1.6 | 0.00 | 2.24 | 2.24 | 88 | 1013.5 |
| 20260906025004 | 24 | 129 | 0.0 | 1.6 | 0.00 | 2.24 | 2.24 | 88 | 1013.5 |
| 20260906024505 | 24 | 220 | 0.0 | 0.0 | 0.00 | 2.24 | 2.24 | 87 | 1013.5 |
| 20260906024006 | 24 | 220 | 0.0 | 0.0 | 0.00 | 2.24 | 2.24 | 87 | 1013.6 |
| 20260906023505 | 24 | 220 | 0.0 | 0.0 | 0.00 | 2.24 | 2.24 | 87 | 1013.5 |
| 20260906023008 | 24 | 220 | 0.0 | 0.0 | 0.00 | 2.24 | 2.24 | 87 | 1013.4 |
| 20260906022507 | 25 | 220 | 0.0 | 1.6 | 0.00 | 2.24 | 2.24 | 87 | 1013.3 |
| 20260906022009 | 25 | 220 | 0.0 | 1.6 | 0.00 | 2.24 | 2.24 | 87 | 1013.3 |
| 20260906021512 | 25 | 220 | 0.0 | 0.0 | 0.00 | 2.24 | 2.24 | 86 | 1013.2 |
| 20260906021011 | 25 | 220 | 0.0 | 0.0 | 0.00 | 2.24 | 2.24 | 86 | 1013.3 |
| 20260906020512 | 25 | 220 | 0.0 | 0.0 | 0.00 | 2.24 | 2.24 | 86 | 1013.1 |
| 20260906020022 | 25 | 220 | 0.0 | 0.0 | 0.00 | 2.24 | 2.24 | 85 | 1013.2 |
| 20260906015503 | 25 | 220 | 0.0 | 0.0 | 0.00 | 2.24 | 2.24 | 85 | 1013.3 |
| 20260906015004 | 25 | 220 | 0.0 | 0.0 | 0.00 | 2.24 | 2.24 | 85 | 1013.2 |
| 20260906014504 | 25 | 220 | 0.0 | 0.0 | 0.00 | 2.24 | 2.24 | 85 | 1013.0 |
| 20260906014003 | 25 | 220 | 0.0 | 0.0 | 0.00 | 2.24 | 2.24 | 84 | 1012.8 |
| 20260906013506 | 25 | 220 | 0.0 | 0.0 | 0.00 | 2.24 | 2.24 | 83 | 1013.0 |
| 20260906013005 | 25 | 220 | 0.0 | 0.0 | 0.00 | 2.24 | 2.24 | 83 | 1012.9 |
| 20260906012508 | 25 | 220 | 0.0 | 0.0 | 0.00 | 2.24 | 2.24 | 83 | 1012.9 |
| 20260906012006 | 26 | 220 | 0.0 | 1.6 | 0.00 | 2.24 | 2.24 | 82 | 1013.1 |
| 20260906011516 | 26 | 220 | 0.0 | 1.6 | 0.00 | 2.24 | 2.24 | 82 | 1013.0 |
| 20260906011007 | 26 | 220 | 0.0 | 1.6 | 0.00 | 2.24 | 2.24 | 82 | 1012.9 |
| 20260906010508 | 26 | 220 | 0.0 | 1.6 | 0.00 | 2.24 | 2.24 | 81 | 1012.8 |
| 20260906010018 | 26 | 220 | 0.0 | 1.6 | 0.00 | 2.24 | 2.24 | 81 | 1012.8 |
| 20260906005512 | 26 | 220 | 0.0 | 0.0 | 0.00 | 2.24 | 2.24 | 81 | 1012.7 |
| 20260906005013 | 26 | 220 | 0.0 | 0.0 | 0.00 | 2.24 | 2.24 | 80 | 1012.8 |
| 20260906004526 | 26 | 220 | 0.0 | 0.0 | 0.00 | 2.24 | 2.24 | 80 | 1012.7 |
| 20260906004003 | 26 | 220 | 0.0 | 0.0 | 0.00 | 2.24 | 2.24 | 79 | 1012.7 |
| 20260906003503 | 27 | 220 | 0.0 | 0.0 | 0.00 | 2.24 | 2.24 | 79 | 1012.8 |
| 20260906003004 | 27 | 220 | 0.0 | 0.0 | 0.00 | 2.24 | 2.24 | 78 | 1012.8 |
| 20260906002504 | 27 | 220 | 0.0 | 1.6 | 0.00 | 2.24 | 2.24 | 78 | 1012.7 |
| 20260906002004 | 27 | 220 | 0.0 | 1.6 | 0.00 | 2.24 | 2.24 | 77 | 1012.5 |
| 20260906001510 | 27 | 220 | 0.0 | 1.6 | 0.00 | 2.24 | 2.24 | 76 | 1012.5 |
| 20260906001007 | 27 | 225 | 0.0 | 0.0 | 0.00 | 2.24 | 2.24 | 76 | 1012.7 |
| 20260906000507 | 27 | 225 | 0.0 | 1.6 | 0.00 | 2.24 | 2.24 | 76 | 1012.7 |
| 20260906000015 | 27 | 241 | 0.0 | 4.8 | 0.00 | 2.24 | 2.24 | 75 | 1012.7 |
| 20260905235512 | 28 | 110 | 0.0 | 4.8 | 0.00 | 2.24 | 2.24 | 75 | 1012.6 |
| 20260905235011 | 28 | 242 | 0.0 | 4.8 | 0.00 | 2.24 | 2.24 | 75 | 1012.8 |
| 20260905234521 | 28 | 239 | 0.0 | 4.8 | 0.00 | 2.24 | 2.24 | 75 | 1012.7 |
| 20260905234015 | 28 | 194 | 0.0 | 3.2 | 0.00 | 2.24 | 2.24 | 74 | 1012.7 |
| 20260905233514 | 28 | 175 | 0.0 | 1.6 | 0.00 | 2.24 | 2.24 | 72 | 1012.7 |
| 20260905233025 | 28 | 175 | 0.0 | 3.2 | 0.00 | 2.24 | 2.24 | 72 | 1012.7 |
| 20260905232516 | 28 | 175 | 0.0 | 3.2 | 0.00 | 2.24 | 2.24 | 71 | 1012.7 |
| 20260905232004 | 29 | 182 | 0.0 | 3.2 | 0.00 | 2.24 | 2.24 | 71 | 1012.6 |
| 20260905231508 | 29 | 151 | 0.0 | 3.2 | 0.00 | 2.24 | 2.24 | 71 | 1012.6 |
| 20260905231004 | 29 | 234 | 0.0 | 4.8 | 0.00 | 2.24 | 2.24 | 71 | 1012.5 |
| 20260905230507 | 29 | 280 | 0.0 | 6.4 | 0.00 | 2.24 | 2.24 | 71 | 1012.5 |
| 20260905230012 | 30 | 241 | 0.0 | 6.4 | 0.00 | 2.24 | 2.24 | 71 | 1012.5 |
| 20260905225508 | 30 | 173 | 0.0 | 4.8 | 0.00 | 2.24 | 2.24 | 70 | 1012.5 |
| 20260905225011 | 30 | 327 | 0.0 | 4.8 | 0.00 | 2.24 | 2.24 | 70 | 1012.5 |
| 20260905224540 | 30 | 263 | 0.0 | 6.4 | 0.00 | 2.24 | 2.24 | 70 | 1012.5 |
| 20260905224013 | 30 | 216 | 1.6 | 6.4 | 0.00 | 2.24 | 2.24 | 70 | 1012.4 |
| 20260905223513 | 30 | 154 | 0.0 | 6.4 | 0.00 | 2.24 | 2.24 | 70 | 1012.4 |
| 20260905223024 | 30 | 196 | 0.0 | 6.4 | 0.00 | 2.24 | 2.24 | 70 | 1012.3 |
| 20260905222513 | 30 | 169 | 0.0 | 8.0 | 0.00 | 2.24 | 2.24 | 71 | 1012.3 |
| 20260905222016 | 30 | 140 | 1.6 | 8.0 | 0.00 | 2.24 | 2.24 | 70 | 1012.3 |
| 20260905221530 | 30 | 213 | 1.6 | 6.4 | 0.00 | 2.24 | 2.24 | 71 | 1012.3 |
| 20260905221019 | 30 | 239 | 0.0 | 8.0 | 0.00 | 2.24 | 2.24 | 72 | 1012.3 |
| 20260905220505 | 30 | 249 | 1.6 | 8.0 | 0.00 | 2.24 | 2.24 | 71 | 1012.4 |
| 20260905220009 | 30 | 220 | 1.6 | 8.0 | 0.00 | 2.24 | 2.24 | 72 | 1012.5 |
| 20260905215506 | 30 | 204 | 3.2 | 11.3 | 0.00 | 2.24 | 2.24 | 72 | 1012.5 |
| 20260905215011 | 30 | 233 | 1.6 | 11.3 | 0.00 | 2.24 | 2.24 | 71 | 1012.6 |
| 20260905214515 | 31 | 239 | 4.8 | 11.3 | 0.00 | 2.24 | 2.24 | 71 | 1012.8 |
| 20260905214010 | 31 | 215 | 1.6 | 8.0 | 0.00 | 2.24 | 2.24 | 72 | 1012.8 |
| 20260905213510 | 31 | 285 | 1.6 | 6.4 | 0.00 | 2.24 | 2.24 | 72 | 1012.8 |
| 20260905213021 | 31 | 222 | 1.6 | 6.4 | 0.00 | 2.24 | 2.24 | 72 | 1012.8 |
| 20260905212517 | 31 | 227 | 0.0 | 4.8 | 0.00 | 2.24 | 2.24 | 72 | 1012.7 |
| 20260905212014 | 31 | 162 | 0.0 | 4.8 | 0.00 | 2.24 | 2.24 | 70 | 1012.8 |
| 20260905211540 | 31 | 238 | 1.6 | 4.8 | 0.00 | 2.24 | 2.24 | 74 | 1012.7 |
| 20260905211013 | 31 | 260 | 0.0 | 4.8 | 0.00 | 2.24 | 2.24 | 74 | 1012.7 |
| 20260905210515 | 31 | 131 | 0.0 | 6.4 | 0.00 | 2.24 | 2.24 | 74 | 1012.6 |
| 20260905210040 | 31 | 206 | 0.0 | 6.4 | 0.00 | 2.24 | 2.24 | 74 | 1012.7 |
| 20260905205516 | 31 | 199 | 0.0 | 4.8 | 0.00 | 2.24 | 2.24 | 73 | 1012.6 |
| 20260905205007 | 31 | 136 | 0.0 | 9.7 | 0.00 | 2.24 | 2.24 | 76 | 1012.8 |
| 20260905204510 | 30 | 132 | 1.6 | 9.7 | 0.00 | 2.24 | 2.24 | 74 | 1013.0 |
| 20260905204010 | 30 | 128 | 3.2 | 9.7 | 0.00 | 2.24 | 2.24 | 75 | 1013.1 |
| 20260905203510 | 30 | 244 | 3.2 | 8.0 | 0.00 | 2.24 | 2.24 | 75 | 1013.1 |
| 20260905203018 | 31 | 261 | 1.6 | 6.4 | 0.00 | 2.24 | 2.24 | 76 | 1013.2 |
| 20260905202513 | 31 | 200 | 1.6 | 4.8 | 0.00 | 2.24 | 2.24 | 78 | 1013.2 |
| 20260905202013 | 31 | 232 | 0.0 | 4.8 | 0.00 | 2.24 | 2.24 | 81 | 1013.3 |
| 20260905201526 | 30 | 174 | 1.6 | 4.8 | 0.00 | 2.24 | 2.24 | 78 | 1013.4 |
| 20260905201015 | 30 | 233 | 1.6 | 6.4 | 0.00 | 2.24 | 2.24 | 78 | 1013.4 |
| 20260905200521 | 30 | 139 | 1.6 | 6.4 | 0.00 | 2.24 | 2.24 | 79 | 1013.5 |
| 20260905200029 | 30 | 173 | 0.0 | 6.4 | 0.00 | 2.24 | 2.24 | 80 | 1013.5 |
| 20260905195515 | 30 | 226 | 0.0 | 4.8 | 0.00 | 2.24 | 2.24 | 82 | 1013.5 |
| 20260905195015 | 29 | 211 | 0.0 | 4.8 | 0.00 | 2.24 | 2.24 | 80 | 1013.6 |
| 20260905194532 | 29 | 199 | 1.6 | 4.8 | 0.00 | 2.24 | 2.24 | 81 | 1013.6 |
| 20260905194008 | 29 | 38 | 0.0 | 4.8 | 0.00 | 2.24 | 2.24 | 84 | 1013.6 |
| 20260905193507 | 28 | 149 | 1.6 | 3.2 | 0.00 | 2.24 | 2.24 | 87 | 1013.6 |
| 20260905193014 | 28 | 297 | 0.0 | 3.2 | 0.00 | 2.24 | 2.24 | 88 | 1013.7 |
| 20260905192519 | 27 | 189 | 0.0 | 3.2 | 0.00 | 2.24 | 2.24 | 90 | 1013.8 |
| 20260905192011 | 26 | 211 | 0.0 | 1.6 | 0.00 | 2.24 | 2.24 | 92 | 1013.8 |
| 20260905191504 | 26 | 211 | 0.0 | 3.2 | 0.00 | 2.24 | 2.24 | 91 | 1014.0 |
| 20260905191004 | 25 | 211 | 0.0 | 3.2 | 0.00 | 2.24 | 2.24 | 91 | 1014.1 |
| 20260905190503 | 25 | 211 | 0.0 | 3.2 | 0.00 | 2.24 | 2.24 | 91 | 1014.4 |
| 20260905190004 | 25 | 211 | 0.0 | 3.2 | 0.00 | 2.24 | 2.24 | 91 | 1014.7 |
| 20260905185503 | 25 | 211 | 0.0 | 4.8 | 0.00 | 2.24 | 2.24 | 91 | 1014.6 |
| 20260905185005 | 25 | 206 | 0.0 | 4.8 | 0.00 | 2.24 | 2.24 | 91 | 1014.6 |
| 20260905184519 | 25 | 225 | 0.0 | 4.8 | 0.00 | 2.24 | 2.24 | 91 | 1014.7 |
| 20260905184007 | 25 | 162 | 0.0 | 6.4 | 0.00 | 2.24 | 2.24 | 91 | 1014.3 |
| 20260905183508 | 25 | 71 | 1.6 | 6.4 | 0.03 | 2.24 | 2.24 | 90 | 1014.3 |
| 20260905183011 | 24 | 5 | 0.0 | 1.6 | 0.03 | 2.24 | 2.24 | 90 | 1014.2 |
| 20260905182508 | 24 | 180 | 0.0 | 1.6 | 0.86 | 2.24 | 2.24 | 90 | 1014.4 |
| 20260905182011 | 24 | 344 | 0.0 | 1.6 | 1.96 | 2.24 | 2.24 | 89 | 1014.5 |
| 20260905181522 | 24 | 344 | 0.0 | 1.6 | 2.24 | 2.24 | 2.24 | 88 | 1014.7 |
| 20260905181012 | 24 | 279 | 0.0 | 1.6 | 2.24 | 2.24 | 2.24 | 88 | 1014.9 |
| 20260905180518 | 24 | 279 | 0.0 | 1.6 | 2.24 | 2.24 | 2.24 | 87 | 1014.9 |
| 20260905180006 | 24 | 218 | 0.0 | 1.6 | 2.24 | 2.24 | 2.24 | 87 | 1015.1 |
| 20260905175504 | 24 | 218 | 0.0 | 3.2 | 2.24 | 2.24 | 2.24 | 86 | 1015.0 |
| 20260905175004 | 24 | 218 | 0.0 | 3.2 | 2.24 | 2.24 | 2.24 | 85 | 1014.9 |
| 20260905174505 | 25 | 322 | 0.0 | 3.2 | 2.24 | 2.24 | 2.24 | 82 | 1015.1 |
| 20260905174004 | 25 | 234 | 0.0 | 12.9 | 2.24 | 2.24 | 2.24 | 81 | 1014.8 |
| 20260905173504 | 25 | 234 | 0.0 | 12.9 | 2.21 | 2.21 | 2.21 | 78 | 1015.2 |
| 20260905173010 | 26 | 267 | 1.6 | 16.1 | 2.21 | 2.21 | 2.21 | 75 | 1015.4 |
| 20260905172503 | 27 | 138 | 4.8 | 20.9 | 1.37 | 1.37 | 1.37 | 72 | 1016.1 |
| 20260905172014 | 30 | 17 | 11.3 | 24.1 | 0.28 | 0.28 | 0.28 | 69 | 1016.2 |
| 20260905171516 | 31 | 56 | 9.7 | 24.1 | 0.00 | 0.00 | 0.00 | 63 | 1015.4 |
| 20260905171010 | 32 | 309 | 6.4 | 16.1 | 0.00 | 0.00 | 0.00 | 61 | 1015.2 |
| 20260905170512 | 32 | 23 | 1.6 | 6.4 | 0.00 | 0.00 | 0.00 | 63 | 1014.9 |
| 20260905170020 | 32 | 26 | 0.0 | 6.4 | 0.00 | 0.00 | 0.00 | 63 | 1015.0 |
| 20260905165513 | 32 | 20 | 1.6 | 6.4 | 0.00 | 0.00 | 0.00 | 62 | 1015.0 |
| 20260905165015 | 32 | 242 | 1.6 | 4.8 | 0.00 | 0.00 | 0.00 | 66 | 1015.1 |
| 20260905164510 | 32 | 192 | 0.0 | 4.8 | 0.00 | 0.00 | 0.00 | 64 | 1015.1 |
| 20260905164003 | 32 | 51 | 0.0 | 4.8 | 0.00 | 0.00 | 0.00 | 61 | 1015.4 |
| 20260905163505 | 32 | 104 | 1.6 | 4.8 | 0.00 | 0.00 | 0.00 | 62 | 1015.4 |
| 20260905163011 | 32 | 131 | 0.0 | 6.4 | 0.00 | 0.00 | 0.00 | 68 | 1015.1 |
| 20260905162505 | 32 | 239 | 1.6 | 6.4 | 0.00 | 0.00 | 0.00 | 64 | 1015.1 |
| 20260905162008 | 32 | 83 | 1.6 | 6.4 | 0.00 | 0.00 | 0.00 | 65 | 1015.2 |
| 20260905161511 | 32 | 47 | 1.6 | 6.4 | 0.00 | 0.00 | 0.00 | 67 | 1015.3 |
| 20260905161010 | 32 | 159 | 1.6 | 6.4 | 0.00 | 0.00 | 0.00 | 66 | 1015.2 |
| 20260905160511 | 31 | 255 | 3.2 | 8.0 | 0.00 | 0.00 | 0.00 | 65 | 1015.3 |
| 20260905160016 | 31 | 258 | 3.2 | 8.0 | 0.00 | 0.00 | 0.00 | 66 | 1015.3 |
| 20260905155515 | 31 | 223 | 3.2 | 8.0 | 0.00 | 0.00 | 0.00 | 69 | 1015.4 |
| 20260905155013 | 31 | 233 | 0.0 | 6.4 | 0.00 | 0.00 | 0.00 | 69 | 1015.4 |
| 20260905154535 | 30 | 44 | 0.0 | 4.8 | 0.00 | 0.00 | 0.00 | 71 | 1015.3 |
| 20260905154016 | 30 | 131 | 0.0 | 3.2 | 0.00 | 0.00 | 0.00 | 72 | 1015.3 |
| 20260905153516 | 30 | 219 | 0.0 | 3.2 | 0.00 | 0.00 | 0.00 | 72 | 1015.4 |
| 20260905153032 | 30 | 203 | 0.0 | 4.8 | 0.00 | 0.00 | 0.00 | 71 | 1015.4 |
| 20260905152504 | 30 | 168 | 1.6 | 4.8 | 0.00 | 0.00 | 0.00 | 72 | 1015.5 |
| 20260905152006 | 30 | 254 | 0.0 | 4.8 | 0.00 | 0.00 | 0.00 | 73 | 1015.5 |
| 20260905151517 | 29 | 118 | 1.6 | 4.8 | 0.00 | 0.00 | 0.00 | 74 | 1015.5 |
| 20260905151007 | 29 | 215 | 0.0 | 4.8 | 0.00 | 0.00 | 0.00 | 74 | 1015.7 |
| 20260905150514 | 29 | 173 | 0.0 | 4.8 | 0.00 | 0.00 | 0.00 | 76 | 1015.6 |
| 20260905150015 | 28 | 265 | 0.0 | 4.8 | 0.00 | 0.00 | 0.00 | 76 | 1015.7 |
| 20260905145511 | 28 | 236 | 0.0 | 3.2 | 0.00 | 0.00 | 0.00 | 76 | 1015.7 |
| 20260905145012 | 28 | 105 | 0.0 | 4.8 | 0.00 | 0.00 | 0.00 | 78 | 1015.7 |
| 20260905144524 | 28 | 246 | 0.0 | 4.8 | 0.00 | 0.00 | 0.00 | 78 | 1015.6 |
| 20260905144014 | 28 | 327 | 0.0 | 4.8 | 0.00 | 0.00 | 0.00 | 80 | 1015.7 |
| 20260905143516 | 27 | 203 | 0.0 | 3.2 | 0.00 | 0.00 | 0.00 | 82 | 1015.7 |
| 20260905143027 | 27 | 247 | 0.0 | 3.2 | 0.00 | 0.00 | 0.00 | 83 | 1015.7 |
| 20260905142514 | 27 | 199 | 0.0 | 3.2 | 0.00 | 0.00 | 0.00 | 84 | 1015.7 |
| 20260905142017 | 26 | 247 | 0.0 | 4.8 | 0.00 | 0.00 | 0.00 | 85 | 1015.8 |
| 20260905141533 | 26 | 247 | 1.6 | 4.8 | 0.00 | 0.00 | 0.00 | 86 | 1015.9 |
| 20260905141004 | 26 | 247 | 1.6 | 4.8 | 0.00 | 0.00 | 0.00 | 87 | 1015.8 |
| 20260905140511 | 26 | 201 | 0.0 | 4.8 | 0.00 | 0.00 | 0.00 | 88 | 1015.9 |
| 20260905140010 | 25 | 215 | 1.6 | 4.8 | 0.00 | 0.00 | 0.00 | 88 | 1015.9 |
| 20260905135510 | 25 | 227 | 0.0 | 4.8 | 0.00 | 0.00 | 0.00 | 89 | 1016.1 |
| 20260905135011 | 25 | 264 | 0.0 | 4.8 | 0.00 | 0.00 | 0.00 | 89 | 1015.8 |
| 20260905134519 | 25 | 232 | 0.0 | 3.2 | 0.00 | 0.00 | 0.00 | 90 | 1016.0 |
| 20260905134013 | 25 | 232 | 0.0 | 4.8 | 0.00 | 0.00 | 0.00 | 90 | 1016.0 |
| 20260905133515 | 25 | 192 | 0.0 | 4.8 | 0.00 | 0.00 | 0.00 | 90 | 1016.0 |
| 20260905133035 | 24 | 139 | 0.0 | 3.2 | 0.00 | 0.00 | 0.00 | 91 | 1016.0 |
| 20260905132513 | 24 | 136 | 0.0 | 3.2 | 0.00 | 0.00 | 0.00 | 91 | 1016.2 |
| 20260905132018 | 24 | 106 | 0.0 | 3.2 | 0.00 | 0.00 | 0.00 | 91 | 1016.1 |
| 20260905131531 | 24 | 22 | 0.0 | 3.2 | 0.00 | 0.00 | 0.00 | 91 | 1016.2 |
| 20260905131018 | 23 | 22 | 0.0 | 1.6 | 0.00 | 0.00 | 0.00 | 92 | 1016.2 |
| 20260905130518 | 23 | 22 | 0.0 | 1.6 | 0.00 | 0.00 | 0.00 | 92 | 1016.3 |
| 20260905130032 | 23 | 22 | 0.0 | 1.6 | 0.00 | 0.00 | 0.00 | 92 | 1016.4 |
| 20260905125509 | 23 | 22 | 0.0 | 1.6 | 0.00 | 0.00 | 0.00 | 92 | 1016.4 |
| 20260905125009 | 23 | 22 | 0.0 | 1.6 | 0.00 | 0.00 | 0.00 | 92 | 1016.4 |
| 20260905124516 | 23 | 1 | 0.0 | 1.6 | 0.00 | 0.00 | 0.00 | 92 | 1016.4 |
| 20260905124011 | 23 | 1 | 0.0 | 1.6 | 0.00 | 0.00 | 0.00 | 92 | 1016.2 |
| 20260905123512 | 23 | 192 | 0.0 | 1.6 | 0.00 | 0.00 | 0.00 | 92 | 1016.2 |
| 20260905123020 | 23 | 263 | 0.0 | 1.6 | 0.00 | 0.00 | 0.00 | 92 | 1016.2 |
| 20260905122514 | 22 | 191 | 0.0 | 0.0 | 0.00 | 0.00 | 0.00 | 92 | 1016.1 |
| 20260905122014 | 22 | 191 | 0.0 | 0.0 | 0.00 | 0.00 | 0.00 | 92 | 1016.0 |
| 20260905121527 | 22 | 191 | 0.0 | 0.0 | 0.00 | 0.00 | 0.00 | 92 | 1016.0 |
| 20260905121016 | 22 | 191 | 0.0 | 0.0 | 0.00 | 0.00 | 0.00 | 92 | 1016.0 |
| 20260905120518 | 22 | 191 | 0.0 | 0.0 | 0.00 | 0.00 | 0.00 | 92 | 1016.0 |
| 20260905120033 | 22 | 191 | 0.0 | 0.0 | 0.00 | 0.00 | 0.00 | 91 | 1015.7 |
| 20260905115519 | 22 | 191 | 0.0 | 0.0 | 0.00 | 0.00 | 0.00 | 91 | 1015.8 |
| 20260905115020 | 22 | 191 | 0.0 | 0.0 | 0.00 | 0.00 | 0.00 | 91 | 1015.7 |
| 20260905114532 | 22 | 191 | 0.0 | 1.6 | 0.00 | 0.00 | 0.00 | 91 | 1015.6 |
| 20260905114011 | 22 | 191 | 0.0 | 1.6 | 0.00 | 0.00 | 0.00 | 91 | 1015.5 |
| 20260905113510 | 22 | 349 | 0.0 | 0.0 | 0.00 | 0.00 | 0.00 | 91 | 1015.4 |
| 20260905113018 | 22 | 349 | 0.0 | 0.0 | 0.00 | 0.00 | 0.00 | 91 | 1015.3 |
| 20260905112513 | 22 | 21 | 0.0 | 0.0 | 0.00 | 0.00 | 0.00 | 91 | 1015.2 |
| 20260905112014 | 22 | 21 | 0.0 | 0.0 | 0.00 | 0.00 | 0.00 | 91 | 1015.2 |
| 20260905111525 | 22 | 21 | 0.0 | 0.0 | 0.00 | 0.00 | 0.00 | 91 | 1015.2 |
| 20260905111016 | 22 | 21 | 0.0 | 0.0 | 0.00 | 0.00 | 0.00 | 91 | 1015.1 |
| 20260905110518 | 22 | 21 | 0.0 | 0.0 | 0.00 | 0.00 | 0.00 | 91 | 1015.1 |
| 20260905110029 | 22 | 21 | 0.0 | 0.0 | 0.00 | 0.00 | 0.00 | 91 | 1015.1 |
| 20260905105518 | 22 | 21 | 0.0 | 0.0 | 0.00 | 0.00 | 0.00 | 91 | 1015.2 |
| 20260905105015 | 22 | 21 | 0.0 | 0.0 | 0.00 | 0.00 | 0.00 | 91 | 1014.9 |
| 20260905104532 | 22 | 21 | 0.0 | 0.0 | 0.00 | 0.00 | 0.00 | 91 | 1014.9 |
| 20260905104012 | 22 | 21 | 0.0 | 1.6 | 0.00 | 0.00 | 0.00 | 91 | 1014.8 |
| 20260905103512 | 22 | 21 | 0.0 | 1.6 | 0.00 | 0.00 | 0.00 | 91 | 1014.8 |
| 20260905103017 | 22 | 21 | 0.0 | 1.6 | 0.00 | 0.00 | 0.00 | 91 | 1014.7 |
| 20260905102511 | 22 | 21 | 0.0 | 0.0 | 0.00 | 0.00 | 0.00 | 90 | 1014.7 |
| 20260905102011 | 22 | 21 | 0.0 | 0.0 | 0.00 | 0.00 | 0.00 | 90 | 1014.6 |
| 20260905101530 | 22 | 21 | 0.0 | 0.0 | 0.00 | 0.00 | 0.00 | 90 | 1014.7 |